sat.trackr.live / text

‹ back to catalog

STARLINK-31140

NORAD 58767 · 2024-011C

PAYLOAD ACTIVE UNKNOWN

§ Identity

Operator
Country
US
Launch date
2024-01-14
Launch site
AFWTR
Launch vehicle
Mass (kg)
RCS (m²)

Purposes: comms

External: N2YO · Heavens-Above · Gunter

§ Orbital elements

Epoch: 2026-09-19T06:56:39.747552Z

Period
93.85 min
Inclination
53.1624°
Eccentricity
0.0001219
Mean motion
15.34393519 rev/d
Perigee alt
461.9 km
Apogee alt
463.6 km
Semi-major
6,840.9 km
B*
2.8888e-5
RAAN
191.4233°
Arg perigee
79.6102°
Mean anomaly
280.5038°
Rev number
14,995

§ Raw data

STARLINK-311401 58767U 24011C   26262.28934893  .00000600  00000+0  28888-4 0  99982 58767  53.1624 191.4233 0001219  79.6102 280.5038 15.34393519149954

JSON: /api/v1/satellites/58767 · /tle

For live sub-satellite position, see the globe view (requires WebGL).

§ Visibility from observer

Set your observer location to see the next 7 days of passes ≥ 10°. The values pass through the URL so the page stays shareable.

No JS? Fill the form by hand. The geolocation button needs JavaScript.